Home   Weather   Enid   Past weeks
Flag for USA

Past Weather in Enid, Oklahoma, USA — Yesterday and Last 2 Weeks

Now
38 °F

Clear.


Feels Like: 32 °F
Forecast: 64 / 40 °F
Wind: 8 mph from North

Location: Vance Air Force Base / Enid

Current Time: Oct 16, 2019 at 7:35:09 am

Latest Report: Oct 16, 2019 at 6:56 am


Visibility: 10 mi

Pressure: 30.24 "Hg

Humidity: 87%

Dew Point: 35 °F

Location of EnidLocation

Past Weather in Enid — Graph

°F

Enid Temperature Yesterday

Maximum temperature yesterday: 72 °F (at 2:56 pm)
Minimum temperature yesterday: 51 °F (at 11:56 pm)
Average temperature yesterday: 64 °F

High & Low Weather Summary for the Past Weeks

 TemperatureHumidityPressure
High91 °F (Oct 2, 3:56 pm)100% (Oct 1, 5:21 am)30.40 "Hg (Oct 1, 5:21 am)
Low30 °F (Oct 12, 6:01 am)16% (Oct 12, 4:56 pm)29.61 "Hg (Oct 10, 4:56 am)
Average61 °F72%30.02 "Hg
* Reported Oct 1 5:21 am — Oct 16 5:56 am, Enid. Weather by CustomWeather, © 2019

Note: Actual official high and low records may vary slightly from our data, if they occured in-between our weather recording intervals... More about our weather records

Advertising

Enid Weather History for the Previous 24 Hours

Scroll right to see more
 ConditionsComfort  
Time TempWeatherWind HumidityBarometerVisibility
5:56 am
Wed, Oct 16
42 °FClear.9 mph75%30.23 "Hg10 mi
4:56 am42 °FClear.7 mph77%30.23 "Hg10 mi
3:56 am46 °FClear.10 mph64%30.22 "Hg10 mi
2:56 am46 °FClear.8 mph68%30.22 "Hg10 mi
1:56 am46 °FClear.8 mph71%30.22 "Hg10 mi
12:56 am48 °FClear.7 mph66%30.21 "Hg10 mi
11:56 pm
Tue, Oct 15
51 °FClear.8 mph58%30.19 "Hg10 mi
10:56 pm53 °FClear.9 mph52%30.17 "Hg10 mi
9:56 pm55 °FClear.10 mph47%30.13 "Hg10 mi
8:56 pm58 °FClear.12 mph42%30.11 "Hg10 mi
7:56 pm60 °FClear.9 mph43%30.07 "Hg10 mi
6:56 pm64 °FClear.13 mph37%30.03 "Hg10 mi
5:56 pm68 °FSunny.21 mph34%30.01 "Hg10 mi
4:56 pm70 °FSunny.25 mph33%29.99 "Hg10 mi
3:56 pm71 °FSunny.29 mph33%29.97 "Hg10 mi
2:56 pm72 °FOvercast.28 mph33%29.94 "Hg9 mi
1:56 pm68 °FOvercast.21 mph55%29.93 "Hg10 mi
12:56 pm64 °FOvercast.21 mph72%29.93 "Hg10 mi
12:26 pm63 °FMore clouds than sun.21 mph94%29.92 "Hg10 mi
12:16 pm61 °FMostly cloudy.16 mph100%29.93 "Hg10 mi
11:56 am61 °FLow clouds.22 mph100%29.93 "Hg9 mi
11:36 am64 °FLow clouds.17 mph100%29.91 "Hg9 mi
10:56 am69 °FMostly cloudy.15 mph96%29.89 "Hg10 mi
10:41 am68 °FPartly sunny.16 mph100%29.88 "Hg10 mi
10:36 am68 °FPartly sunny.16 mph100%29.89 "Hg10 mi
10:16 am68 °FScattered clouds.9 mph100%29.88 "Hg8 mi
10:06 am66 °FPartly sunny.12 mph100%29.88 "Hg7 mi
9:56 am66 °FFog.9 mph100%29.88 "Hg6 mi
9:27 am66 °FDrizzle. Partly sunny.8 mph100%29.87 "Hg7 mi
9:22 am66 °FLight rain. Mostly cloudy.9 mph100%29.87 "Hg7 mi
8:56 am65 °FSunny.5 mph100%29.86 "Hg7 mi
7:56 am63 °FLight rain. Fog.8 mph100%29.81 "Hg7 mi
Weather by CustomWeather, © 2019

See weather overview